This demonstration page uses our WeatherBlox Daily Observations layout. Learn more.

Left ArrowRight Arrow

Hourly Observations for September 14, 2015

Temp ( °F °C ) Dew Point ( °F °C ) Humidity (%) Winds ( mph kmh ) Pressure ( in mb ) Visibility ( mi km ) Precip ( " mm )
12:59 am 00:59 Mostly Clear 66 18.9 50 10 56 56 NW 12 19 30.05 1018 10 16 0.00 0.00
1:59 am 01:59 Clear 65 18.3 51 10.6 61 61 NNW 13 20 30.06 1018 10 16 0.00 0.00
2:59 am 02:59 Clear 64 17.8 49 9.4 58 58 NNW 13 20 30.08 1019 10 16 0.00 0.00
3:59 am 03:59 Clear 62 16.7 50 10 65 65 NNW 7 11 30.11 1020 10 16 0.00 0.00
4:59 am 04:59 Clear 62 16.7 51 10.6 67 67 WNW 7 11 30.11 1020 10 16 0.00 0.00
5:59 am 05:59 Mostly Clear 63 17.2 50 10 63 63 NW 9 15 30.14 1021 10 16 0.00 0.00
6:59 am 06:59 Mostly Sunny 63 17.2 50 10 63 63 NW 12 19 30.16 1021 10 16 0.00 0.00
7:59 am 07:59 Sunny 65 18.3 51 10.6 61 61 NW 12 19 30.19 1022 10 16 0.00 0.00
8:59 am 08:59 Sunny 68 20 50 10 53 53 NW 10 17 30.21 1023 10 16 0.00 0.00
9:59 am 09:59 Sunny 71 21.7 47 8.3 42 42 NW 10 17 30.23 1024 10 16 0.00 0.00
10:59 am 10:59 Sunny 72 22.2 46 7.8 40 40 NNW 7 11 30.24 1024 10 16 0.00 0.00
11:59 am 11:59 Sunny 74 23.3 46 7.8 37 37 NNW 8 13 30.24 1024 10 16 0.00 0.00
12:59 pm 12:59 Sunny 74 23.3 48 8.9 40 40 WNW 9 15 30.23 1024 10 16 0.00 0.00
1:59 pm 13:59 Sunny 74 23.3 45 7.2 36 36 W 10 17 30.22 1023 10 16 0.00 0.00
2:59 pm 14:59 Sunny 75 23.9 46 7.8 36 36 W 9 15 30.21 1023 10 16 0.00 0.00
3:59 pm 15:59 Sunny 75 23.9 47 8.3 37 37 W 9 15 30.20 1023 10 16 0.00 0.00
4:59 pm 16:59 Sunny 75 23.9 46 7.8 36 36 W 6 9 30.20 1023 10 16 0.00 0.00
5:59 pm 17:59 Sunny 75 23.9 47 8.3 37 37 WNW 6 9 30.21 1023 10 16 0.00 0.00
6:59 pm 18:59 Sunny 70 21.1 50 10 49 49 S 3 6 30.22 1023 10 16 0.00 0.00
7:59 pm 19:59 Clear 65 18.3 51 10.6 61 61 WSW 3 6 30.23 1024 10 16 0.00 0.00
8:59 pm 20:59 Clear 63 17.2 51 10.6 65 65 W 3 6 30.26 1025 10 16 0.00 0.00
9:59 pm 21:59 Clear 63 17.2 52 11.1 68 68 WSW 6 9 30.27 1025 10 16 0.00 0.00
10:59 pm 22:59 Clear 62 16.7 53 11.7 73 73 W 3 6 30.27 1025 10 16 0.00 0.00
11:59 pm 23:59 Clear 60 15.6 53 11.7 78 78 VRB 3 6 30.27 1025 10 16 0.00 0.00

Powered by AerisWeather